�������l�o���
Date,Time,MP-1(��Sv/h),MP-2(��Sv/h),MP-3(��Sv/h),MP-4(��Sv/h),MP-5(��Sv/h),MP-6(��Sv/h),MP-7(��Sv/h),MP-8(��Sv/h),����,����(m/s),���J
2020/09/09,00:00,0.687,0.976,0.624,1.193,0.866,0.393,0.683,0.641,���k��,1.9,��
2020/09/09,00:10,0.687,0.975,0.624,1.197,0.865,0.392,0.684,0.641,�k��,2.9,��
2020/09/09,00:20,0.686,0.973,0.623,1.194,0.866,0.392,0.685,0.640,�k��,4.3,��
2020/09/09,00:30,0.687,0.976,0.623,1.194,0.864,0.392,0.683,0.640,�k��,5.8,��
2020/09/09,00:40,0.688,0.975,0.624,1.193,0.865,0.391,0.684,0.642,�k��,5.7,��
2020/09/09,00:50,0.688,0.973,0.622,1.195,0.867,0.392,0.684,0.642,�k��,6.1,��
2020/09/09,01:00,0.687,0.975,0.625,1.194,0.864,0.391,0.684,0.640,�k��,5.4,��
2020/09/09,01:10,0.687,0.975,0.623,1.195,0.865,0.391,0.683,0.641,�k��,4.8,��
2020/09/09,01:20,0.686,0.975,0.624,1.194,0.863,0.393,0.684,0.641,�k��,5.5,��
2020/09/09,01:30,0.686,0.974,0.624,1.192,0.867,0.393,0.683,0.641,�k�k��,4.5,��
2020/09/09,01:40,0.686,0.973,0.625,1.195,0.863,0.393,0.683,0.641,�k��,2.6,��
2020/09/09,01:50,0.688,0.975,0.624,1.197,0.866,0.392,0.684,0.641,�k��,2.2,��
2020/09/09,02:00,0.687,0.975,0.621,1.194,0.865,0.393,0.684,0.640,�k�k��,3.0,��
2020/09/09,02:10,0.688,0.973,0.624,1.195,0.865,0.392,0.683,0.641,�k,3.7,��
2020/09/09,02:20,0.687,0.974,0.623,1.194,0.865,0.393,0.685,0.641,�k,4.0,��
2020/09/09,02:30,0.687,0.975,0.624,1.195,0.867,0.394,0.684,0.641,�k�k��,4.4,��
2020/09/09,02:40,0.687,0.973,0.624,1.194,0.866,0.392,0.683,0.641,�k��,4.1,��
2020/09/09,02:50,0.685,0.973,0.622,1.194,0.866,0.392,0.684,0.641,�k�k��,1.7,��
2020/09/09,03:00,0.686,0.974,0.623,1.195,0.866,0.394,0.684,0.642,�k,1.9,��
2020/09/09,03:10,0.687,0.975,0.623,1.196,0.866,0.394,0.683,0.639,�k,2.3,��
2020/09/09,03:20,0.686,0.975,0.623,1.195,0.867,0.393,0.684,0.640,�k,2.8,��
2020/09/09,03:30,0.685,0.974,0.623,1.196,0.867,0.393,0.684,0.640,�k,2.9,��
2020/09/09,03:40,0.687,0.976,0.624,1.197,0.863,0.392,0.683,0.641,�k,2.9,��
2020/09/09,03:50,0.686,0.972,0.624,1.195,0.865,0.392,0.682,0.641,�k,2.6,��
2020/09/09,04:00,0.687,0.973,0.625,1.195,0.866,0.391,0.684,0.640,�k�k��,3.2,��
2020/09/09,04:10,0.686,0.973,0.624,1.196,0.865,0.391,0.683,0.640,�k�k��,2.9,��
2020/09/09,04:20,0.687,0.974,0.623,1.196,0.864,0.393,0.683,0.641,�k�k��,2.9,��
2020/09/09,04:30,0.687,0.973,0.624,1.196,0.866,0.393,0.682,0.640,�k�k��,2.0,��
2020/09/09,04:40,0.686,0.974,0.623,1.194,0.864,0.392,0.683,0.640,�k�k��,2.2,��
2020/09/09,04:50,0.685,0.973,0.624,1.197,0.865,0.392,0.684,0.640,�k�k��,2.0,��
2020/09/09,05:00,0.685,0.975,0.623,1.197,0.864,0.391,0.684,0.640,�k�k��,1.7,��
2020/09/09,05:10,0.686,0.974,0.624,1.196,0.864,0.391,0.683,0.639,�k�k��,1.7,��
2020/09/09,05:20,0.685,0.972,0.625,1.197,0.867,0.390,0.682,0.640,�k�k��,2.3,��
2020/09/09,05:30,0.686,0.972,0.622,1.196,0.863,0.391,0.683,0.638,�k,2.8,��
2020/09/09,05:40,0.687,0.973,0.623,1.192,0.867,0.392,0.683,0.640,�k�k��,2.3,��
2020/09/09,05:50,0.687,0.974,0.623,1.195,0.864,0.391,0.684,0.640,�k�k��,2.0,��
2020/09/09,06:00,0.686,0.974,0.623,1.196,0.867,0.392,0.682,0.642,�k�k��,2.5,��
2020/09/09,06:10,0.687,0.974,0.623,1.197,0.865,0.391,0.684,0.640,�k�k��,1.9,��
2020/09/09,06:20,0.688,0.975,0.623,1.196,0.865,0.393,0.683,0.641,�k��,1.7,��
2020/09/09,06:30,0.686,0.975,0.622,1.195,0.866,0.391,0.683,0.640,�k��,2.2,��
2020/09/09,06:40,0.686,0.973,0.624,1.195,0.864,0.394,0.684,0.641,�k�k��,1.7,��
2020/09/09,06:50,0.685,0.975,0.622,1.196,0.863,0.392,0.684,0.639,�k�k��,1.7,��
2020/09/09,07:00,0.687,0.973,0.625,1.196,0.863,0.392,0.683,0.641,�k��,2.3,��
2020/09/09,07:10,0.686,0.972,0.623,1.197,0.864,0.392,0.683,0.639,�k�k��,1.7,��
2020/09/09,07:20,0.685,0.974,0.622,1.196,0.866,0.392,0.682,0.638,�k�k��,2.0,��
2020/09/09,07:30,0.688,0.971,0.624,1.197,0.864,0.392,0.684,0.640,�k,1.5,��
2020/09/09,07:40,0.687,0.973,0.622,1.198,0.866,0.392,0.685,0.639,�k�k��,1.1,��
2020/09/09,07:50,0.687,0.973,0.621,1.194,0.864,0.392,0.684,0.640,�k��,2.3,��
2020/09/09,08:00,0.684,0.970,0.620,1.197,0.865,0.391,0.684,0.641,�k�k��,2.3,��
2020/09/09,08:10,0.687,0.971,0.619,1.196,0.864,0.392,0.684,0.641,�k��,2.3,��
2020/09/09,08:20,0.686,0.970,0.619,1.195,0.864,0.390,0.684,0.640,�k��,3.1,��
2020/09/09,08:30,0.686,0.970,0.620,1.196,0.865,0.391,0.685,0.641,�k�k��,3.2,��
2020/09/09,08:40,0.686,0.967,0.625,1.197,0.862,0.391,0.684,0.641,�k�k��,3.1,��
2020/09/09,08:50,0.686,0.973,0.623,1.196,0.865,0.392,0.686,0.640,�k��,3.2,��
2020/09/09,09:00,0.686,0.969,0.621,1.198,0.863,0.392,0.685,0.639,�k�k��,4.2,��
2020/09/09,09:10,0.687,0.969,0.622,1.196,0.865,0.391,0.683,0.638,�k�k��,4.7,��
2020/09/09,09:20,0.685,0.967,0.623,1.196,0.865,0.391,0.683,0.639,�k�k��,4.4,��
2020/09/09,09:30,0.685,0.966,0.622,1.197,0.866,0.391,0.684,0.639,�k�k��,5.0,��
2020/09/09,09:40,0.687,0.970,0.623,1.197,0.866,0.390,0.682,0.640,�k�k��,5.4,��
2020/09/09,09:50,0.687,0.972,0.620,1.197,0.865,0.391,0.682,0.639,�k�k��,5.8,��
2020/09/09,10:00,0.688,0.964,0.619,1.196,0.867,0.392,0.684,0.640,�k�k��,5.6,��
2020/09/09,10:10,0.686,0.970,0.618,1.197,0.868,0.391,0.683,0.638,�k�k��,5.3,��
2020/09/09,10:20,0.688,0.971,0.621,1.196,0.866,0.390,0.684,0.640,�k�k��,4.7,��
2020/09/09,10:30,0.689,0.968,0.619,1.198,0.867,0.391,0.684,0.638,�k�k��,5.3,��
2020/09/09,10:40,0.689,0.970,0.621,1.196,0.867,0.391,0.684,0.640,�k��,4.9,��
2020/09/09,10:50,0.687,0.974,0.620,1.198,0.866,0.390,0.683,0.640,�k��,4.1,��
2020/09/09,11:00,0.687,0.971,0.620,1.199,0.868,0.389,0.682,0.639,�k��,4.0,��
2020/09/09,11:10,0.688,0.969,0.620,1.198,0.868,0.390,0.683,0.640,�k�k��,3.8,��
2020/09/09,11:20,0.689,0.971,0.621,1.197,0.868,0.391,0.682,0.641,�k�k��,2.3,��
2020/09/09,11:30,0.687,0.971,0.620,1.200,0.868,0.390,0.683,0.639,�k��,2.8,��
2020/09/09,11:40,0.688,0.973,0.619,1.199,0.870,0.391,0.684,0.641,�k��,3.5,��
2020/09/09,11:50,0.689,0.971,0.621,1.200,0.870,0.390,0.684,0.641,�k��,2.9,��
2020/09/09,12:00,0.689,0.976,0.620,1.201,0.870,0.391,0.684,0.639,�k��,3.9,��
2020/09/09,12:10,0.687,0.978,0.621,1.199,0.871,0.391,0.684,0.641,���k��,3.6,��
2020/09/09,12:20,0.691,0.975,0.620,1.200,0.869,0.390,0.683,0.641,���k��,2.9,��
2020/09/09,12:30,0.688,0.975,0.623,1.203,0.871,0.390,0.685,0.640,���k��,2.5,��
2020/09/09,12:40,0.689,0.975,0.622,1.200,0.871,0.390,0.683,0.639,���k��,4.0,��
2020/09/09,12:50,0.689,0.974,0.623,1.200,0.871,0.390,0.684,0.641,���k��,3.1,��
2020/09/09,13:00,0.688,0.973,0.625,1.201,0.870,0.390,0.683,0.640,���k��,3.3,��
2020/09/09,13:10,0.688,0.978,0.624,1.199,0.869,0.391,0.684,0.639,�k��,2.8,��
2020/09/09,13:20,0.691,0.974,0.621,1.202,0.871,0.390,0.684,0.640,���k��,3.2,��
2020/09/09,13:30,0.690,0.977,0.623,1.199,0.869,0.391,0.684,0.642,��,2.9,��
2020/09/09,13:40,0.689,0.979,0.622,1.199,0.871,0.391,0.685,0.640,��,2.3,��
2020/09/09,13:50,0.689,0.975,0.623,1.201,0.872,0.390,0.683,0.641,��,3.2,��
2020/09/09,14:00,0.690,0.973,0.623,1.199,0.870,0.391,0.685,0.641,���k��,2.8,��
2020/09/09,14:10,0.688,0.973,0.622,1.202,0.871,0.392,0.685,0.641,���k��,2.6,��
2020/09/09,14:20,0.689,0.972,0.624,1.200,0.873,0.391,0.685,0.642,��,3.0,��
2020/09/09,14:30,0.689,0.975,0.625,1.201,0.873,0.392,0.683,0.642,��,3.1,��
2020/09/09,14:40,0.690,0.974,0.622,1.201,0.871,0.391,0.683,0.640,��,2.6,��
2020/09/09,14:50,0.689,0.976,0.624,1.202,0.870,0.392,0.686,0.641,��,2.8,��
2020/09/09,15:00,0.689,0.976,0.624,1.202,0.872,0.391,0.684,0.641,���k��,2.6,��
2020/09/09,15:10,0.690,0.976,0.623,1.201,0.872,0.391,0.686,0.641,���k��,3.0,��
2020/09/09,15:20,0.687,0.979,0.624,1.200,0.870,0.392,0.686,0.641,���k��,2.0,��
2020/09/09,15:30,0.690,0.978,0.622,1.199,0.874,0.392,0.684,0.642,���k��,2.2,��
2020/09/09,15:40,0.689,0.981,0.622,1.201,0.874,0.392,0.686,0.642,���k��,2.3,��
2020/09/09,15:50,0.690,0.980,0.621,1.200,0.871,0.391,0.683,0.641,�k��,1.9,��
2020/09/09,16:00,0.689,0.979,0.623,1.201,0.875,0.390,0.686,0.641,�k��,2.5,��
2020/09/09,16:10,0.689,0.982,0.624,1.202,0.874,0.391,0.685,0.641,���k��,2.0,��
2020/09/09,16:20,0.689,0.982,0.624,1.204,0.873,0.391,0.684,0.639,���k��,2.3,��
2020/09/09,16:30,0.691,0.983,0.622,1.202,0.873,0.390,0.685,0.642,��,2.5,��
2020/09/09,16:40,0.690,0.983,0.625,1.202,0.872,0.391,0.684,0.641,�쓌,1.5,��
2020/09/09,16:50,0.689,0.980,0.623,1.200,0.873,0.392,0.685,0.640,�쓌,0.9,��
2020/09/09,17:00,0.689,0.984,0.624,1.204,0.872,0.392,0.683,0.641,�쓌,1.5,��
2020/09/09,17:10,0.689,0.981,0.624,1.201,0.873,0.391,0.683,0.641,-,CALM,��
2020/09/09,17:20,0.688,0.981,0.622,1.202,0.873,0.390,0.684,0.640,��,1.5,��
2020/09/09,17:30,0.689,0.982,0.622,1.202,0.873,0.391,0.685,0.641,��쐼,0.8,��
2020/09/09,17:40,0.688,0.982,0.624,1.202,0.874,0.391,0.685,0.641,��,0.9,��
2020/09/09,17:50,0.688,0.983,0.624,1.201,0.871,0.390,0.686,0.642,��쓌,1.5,��
2020/09/09,18:00,0.691,0.982,0.622,1.203,0.874,0.392,0.685,0.642,��쓌,0.9,��
2020/09/09,18:10,0.689,0.980,0.622,1.202,0.872,0.392,0.685,0.641,��쐼,1.2,��
2020/09/09,18:20,0.692,0.980,0.623,1.206,0.874,0.389,0.684,0.641,���k��,1.5,��
2020/09/09,18:30,0.689,0.983,0.624,1.202,0.873,0.393,0.684,0.643,�k��,0.9,��
2020/09/09,18:40,0.692,0.984,0.623,1.204,0.876,0.394,0.684,0.642,�k��,1.7,��
2020/09/09,18:50,0.689,0.981,0.624,1.202,0.875,0.394,0.685,0.641,�k��,1.5,��
2020/09/09,19:00,0.689,0.984,0.626,1.204,0.874,0.394,0.684,0.641,�k��,1.1,��
2020/09/09,19:10,0.691,0.982,0.624,1.204,0.876,0.393,0.683,0.641,�k��,1.2,��
2020/09/09,19:20,0.690,0.983,0.624,1.205,0.874,0.394,0.685,0.642,�k��,1.9,��
2020/09/09,19:30,0.690,0.982,0.625,1.206,0.875,0.392,0.685,0.642,�k��,0.8,��
2020/09/09,19:40,0.690,0.985,0.622,1.207,0.876,0.394,0.686,0.641,�k�k��,2.3,��
2020/09/09,19:50,0.691,0.985,0.624,1.207,0.872,0.392,0.686,0.643,�k�k��,2.5,��
2020/09/09,20:00,0.691,0.985,0.624,1.205,0.875,0.392,0.684,0.641,�k,2.0,��
2020/09/09,20:10,0.691,0.985,0.626,1.206,0.875,0.392,0.684,0.643,�k�k��,2.0,��
2020/09/09,20:20,0.691,0.986,0.623,1.206,0.876,0.392,0.684,0.641,�k�k��,2.0,��
2020/09/09,20:30,0.691,0.987,0.624,1.205,0.876,0.393,0.685,0.641,�k��,1.7,��
2020/09/09,20:40,0.692,0.983,0.626,1.206,0.875,0.394,0.686,0.643,���k��,0.6,��
2020/09/09,20:50,0.691,0.986,0.626,1.205,0.876,0.393,0.686,0.643,��쐼,0.6,��
2020/09/09,21:00,0.690,0.985,0.625,1.207,0.877,0.393,0.686,0.641,��쓌,1.1,��
2020/09/09,21:10,0.692,0.985,0.625,1.208,0.875,0.393,0.685,0.642,�쓌,1.2,��
2020/09/09,21:20,0.691,0.984,0.626,1.206,0.876,0.393,0.686,0.643,���쓌,1.2,��
2020/09/09,21:30,0.691,0.985,0.626,1.204,0.875,0.393,0.685,0.641,�쐼,1.4,��
2020/09/09,21:40,0.692,0.986,0.626,1.204,0.876,0.392,0.685,0.642,-,CALM,��
2020/09/09,21:50,0.690,0.986,0.626,1.205,0.874,0.392,0.686,0.641,��,0.6,��
2020/09/09,22:00,0.691,0.988,0.624,1.207,0.877,0.393,0.686,0.642,-,CALM,��
2020/09/09,22:10,0.691,0.986,0.626,1.204,0.874,0.394,0.686,0.642,��,0.6,��
2020/09/09,22:20,0.689,0.988,0.625,1.205,0.875,0.392,0.687,0.643,��,1.5,��
2020/09/09,22:30,0.689,0.986,0.626,1.205,0.876,0.392,0.686,0.643,��쓌,0.8,��
2020/09/09,22:40,0.691,0.984,0.627,1.204,0.876,0.392,0.686,0.644,��쓌,1.1,��
2020/09/09,22:50,0.691,0.984,0.626,1.209,0.874,0.394,0.686,0.644,���쓌,1.1,��
2020/09/09,23:00,0.690,0.986,0.624,1.208,0.876,0.394,0.685,0.642,��쓌,0.9,��
2020/09/09,23:10,0.689,0.985,0.625,1.206,0.876,0.394,0.685,0.642,��쓌,1.5,��
2020/09/09,23:20,0.692,0.984,0.624,1.207,0.876,0.394,0.685,0.642,��쐼,0.6,��
2020/09/09,23:30,0.690,0.986,0.625,1.204,0.875,0.393,0.687,0.643,��쐼,0.9,��
2020/09/09,23:40,0.692,0.986,0.625,1.205,0.874,0.392,0.685,0.643,���쐼,1.5,��
2020/09/09,23:50,0.691,0.982,0.627,1.206,0.876,0.393,0.686,0.642,��쐼,1.1,��
